Temperature
19 18 18 18 18 17 17 17 17 17 17 17 17 17 17 17 17 17 17 16 16 16 16 16 16 16 16 16 16 16 16 16 16 16 16 16 16 15 15 15 15 15 15
19 18 18 18 17 17 17 17 17 17 17 17 17 17 17 17 17 17 17 16 16 16 16 16 16 16 16 16 16 16 16 16 16 16 16 16 16 15 15 15 15 15 15
18 18 17 17 17 17 17 17 17 17 17 17 17 17 17 17 17 17 17 16 16 16 16 16 16 16 16 16 16 16 16 16 16 16 16 16 15 15 15 15 15 15 15
18 17 17 17 17 17 17 17 17 17 17 17 17 17 17 16 16 17 16 16 16 16 16 16 16 16 16 16 16 16 16 15 15 15 16 15 15 15 15 15 15 15 15
17 17 17 17 17 17 17 17 17 17 17 17 17 16 16 16 16 16 16 16 16 16 16 16 16 16 16 16 16 16 16 15 15 15 15 15 15 15 15 15 15 15 14
17 17 16 16 16 16 16 16 17 16 16 16 16 16 16 16 16 16 16 16 16 16 16 16 16 16 16 16 16 16 16 15 15 15 15 15 15 15 15 15 14 14 14
16 16 16 16 16 16 16 16 16 16 16 16 16 16 16 16 16 16 16 16 16 16 16 16 16 16 16 16 16 15 15 15 15 15 15 15 15 14 14 14 14 14 14
16 16 16 16 16 16 16 16 16 16 16 16 16 16 16 16 16 16 16 16 16 16 16 16 16 16 16 15 15 15 15 15 15 15 15 15 14 14 14 14 14 14 14
15 15 15 15 15 15 16 16 16 16 16 16 16 15 15 15 16 16 16 16 16 16 16 16 16 15 15 15 15 15 15 15 15 15 15 15 14 14 14 14 14 14 14
15 15 15 15 15 15 15 15 15 15 15 15 15 15 15 15 15 15 15 15 15 15 16 16 15 15 15 15 15 15 15 15 15 15 15 14 14 14 14 14 14 14 13
14 14 15 15 15 15 15 15 15 15 15 15 15 15 15 15 15 15 15 15 15 15 15 15 15 15 15 15 15 15 15 15 15 15 15 14 14 14 14 14 14 14 13
14 14 14 14 15 15 15 15 15 15 15 15 15 15 15 15 15 15 15 15 15 15 15 15 15 15 15 15 15 15 15 15 15 15 14 14 14 14 14 14 14 13 13
13 14 14 14 14 14 14 14 14 14 14 14 14 14 15 15 14 15 15 15 15 15 15 15 15 15 15 15 15 15 15 15 15 15 14 14 14 14 14 14 14 13 13
13 13 13 14 14 14 14 14 14 14 14 14 14 14 14 14 14 14 14 15 15 15 15 15 15 15 15 15 15 15 15 15 15 14 14 14 14 14 14 14 14 13 13
12 13 13 13 13 13 13 13 14 14 14 14 14 14 14 14 14 14 14 15 15 15 15 15 15 15 15 15 14 14 14 15 14 14 14 14 14 14 14 14 13 13 13
12 12 12 12 13 13 13 13 13 13 14 14 14 14 14 14 14 14 14 14 15 15 15 15 15 15 14 14 14 14 14 14 14 14 14 14 14 14 14 13 13 13 13
11 11 12 12 12 12 13 13 13 13 13 13 13 13 14 14 14 14 14 14 14 14 14 14 14 14 14 14 14 14 14 14 14 14 14 14 14 14 13 13 13 13 13
11 11 11 12 12 12 12 12 13 13 13 13 13 13 13 13 14 14 14 14 14 14 14 14 14 14 14 14 14 14 14 14 14 14 14 14 14 13 13 13 13 13 13
10 10 11 11 11 11 12 12 12 12 12 13 13 13 13 13 13 14 14 14 14 14 14 14 14 14 14 14 13 13 14 14 14 14 14 14 13 13 13 13 13 13 13
10 10 10 11 11 11 11 11 12 12 12 12 12 13 13 13 13 13 14 14 14 14 14 14 14 14 14 13 13 13 13 13 13 13 13 13 13 13 13 13 13 13 13
10 10 10 10 10 11 11 11 11 12 12 12 12 12 12 13 13 13 13 13 13 13 13 13 13 13 13 13 13 12 13 13 13 13 13 13 13 13 13 13 13 13 12
9 9 9 10 10 10 11 11 11 11 12 12 12 12 12 12 12 13 13 13 13 13 13 13 13 13 13 13 12 12 11 12 12 13 13 13 13 13 13 13 13 12 12
9 9 9 9 10 10 10 10 11 11 11 11 11 12 12 12 12 12 13 13 13 13 13 13 13 13 13 12 12 12 11 12 12 12 12 13 13 13 13 13 12 12 12
8 9 9 9 9 10 10 10 10 10 11 11 11 11 12 12 12 12 12 12 12 12 13 13 13 12 12 12 12 12 12 12 12 12 12 12 12 12 12 12 12 12 12
8 8 9 9 9 9 10 9 10 10 10 11 11 11 11 11 11 12 12 12 12 12 12 13 12 12 12 12 12 12 12 12 12 12 12 12 12 12 12 12 12 12 12
8 8 8 9 9 9 9 9 9 10 10 10 10 10 11 11 11 11 11 11 12 12 12 12 12 12 12 12 12 12 12 12 12 12 12 12 12 12 12 12 12 11 11
Wind_Speed
3 8 18 20 20 20 20 19 19 20 21 22 22 23 23 22 22 21 20 19 19 19 20 20 19 19 19 19 18 18 18 18 18 18 18 18 18 18 18 18 17 17 19
5 10 17 20 21 21 20 20 19 20 21 21 22 22 22 22 22 21 20 20 19 19 20 19 19 19 19 19 19 18 18 18 18 18 17 17 17 18 17 17 17 16 18
4 10 15 19 20 21 20 20 19 20 21 21 22 22 22 22 21 21 20 20 19 19 19 19 19 19 19 19 18 18 18 17 17 16 15 14 15 17 17 17 17 17 17
3 8 12 17 20 20 20 20 20 20 21 21 21 22 22 21 21 21 20 20 20 19 19 19 19 19 19 18 17 17 17 16 16 14 12 12 13 16 16 16 16 16 16
2 5 9 15 18 20 20 20 20 20 20 21 21 21 21 21 21 20 20 20 20 20 19 19 19 18 18 17 16 16 16 15 14 13 12 11 12 15 15 15 15 15 15
1 3 8 13 16 19 20 20 20 20 20 20 20 21 21 21 21 20 20 20 20 20 20 19 19 18 17 16 15 16 16 15 13 12 11 11 11 14 14 14 14 14 14
1 2 7 12 15 17 20 21 20 20 20 20 21 21 21 21 21 20 20 21 21 20 19 19 18 17 16 16 15 16 15 14 13 11 10 9 11 12 13 13 13 13 13
2 2 5 11 13 16 18 20 21 20 19 20 20 21 21 20 20 21 21 21 20 20 19 18 17 16 16 16 15 15 15 13 11 10 8 8 10 12 12 12 12 12 12
1 1 2 7 10 14 16 18 19 20 20 20 19 20 20 20 20 21 21 21 20 19 19 18 17 16 16 15 15 14 13 12 11 9 7 8 10 10 11 11 11 10 10
1 2 1 3 6 9 12 16 17 19 19 20 19 19 18 19 20 21 21 20 20 19 18 17 17 16 15 15 14 13 13 11 10 8 7 8 9 10 10 9 9 9 9
3 2 2 3 4 6 9 12 15 16 18 18 18 18 18 16 17 18 19 20 19 18 17 17 16 15 15 14 14 13 12 10 9 7 6 7 8 8 9 8 8 8 8
5 4 3 3 4 6 7 9 10 12 13 14 14 16 15 14 15 16 18 19 19 18 17 16 15 14 12 11 12 12 10 9 8 6 6 7 7 8 8 7 7 7 7
6 5 4 4 4 6 5 6 6 8 9 11 13 15 14 13 13 12 13 15 15 15 13 13 12 11 10 10 9 9 9 8 7 6 6 7 7 7 7 7 7 6 5
5 5 5 5 4 6 5 5 5 6 7 7 11 14 13 9 8 9 9 11 12 12 10 10 9 9 9 9 9 9 8 7 7 7 7 7 8 8 7 7 7 6 5
6 5 4 4 5 6 6 5 6 6 7 9 11 14 14 9 9 8 8 10 10 11 10 8 8 8 7 7 8 8 7 8 8 7 7 7 8 8 7 7 6 6 5
5 5 5 4 5 5 6 5 5 6 8 10 10 12 15 12 9 9 8 8 9 11 11 10 9 7 6 6 5 7 7 8 8 8 7 8 8 8 7 7 6 5 5
5 5 5 5 4 6 6 6 5 5 7 8 9 12 13 13 12 9 8 8 9 12 11 9 7 6 5 4 4 5 6 7 7 8 8 8 8 8 8 7 6 5 4
4 5 5 5 4 5 6 6 5 5 6 6 9 11 13 14 14 10 8 8 10 11 9 7 6 5 5 5 4 4 4 5 6 8 8 8 8 7 7 8 7 6 5
4 4 4 4 5 5 6 6 5 5 5 6 8 9 11 13 14 11 8 8 10 8 7 8 6 5 5 5 4 3 3 3 4 6 6 8 8 8 8 8 8 7 6
3 3 3 4 5 5 5 4 4 5 5 5 6 8 10 11 13 11 8 9 9 8 7 7 7 5 5 5 4 2 2 3 3 4 5 6 8 8 8 8 7 7 7
1 3 3 3 5 5 4 5 5 6 5 5 6 8 10 11 12 10 8 9 9 9 9 9 6 6 4 4 3 1 0 1 3 3 3 4 5 7 8 8 8 7 6
2 3 3 4 5 5 4 4 4 5 5 6 6 7 10 11 12 11 10 9 9 8 9 9 7 5 4 6 4 3 2 2 2 3 3 4 4 6 6 7 8 8 7
2 2 3 4 4 4 4 3 3 3 3 3 5 6 8 10 11 11 11 10 10 9 10 10 10 9 6 6 5 4 4 5 2 2 3 4 4 4 4 6 7 7 7
3 3 2 2 3 4 4 4 6 5 4 5 6 6 7 9 10 10 11 11 11 9 9 10 10 8 9 8 5 3 3 3 3 3 2 3 4 4 4 4 6 7 7
4 3 3 2 3 3 4 4 6 5 4 3 5 6 7 7 8 9 9 10 11 10 10 10 10 9 8 8 6 4 2 1 2 3 4 3 3 4 5 4 5 6 7
6 5 3 2 3 2 3 4 5 6 5 5 6 6 6 6 6 8 8 9 10 9 10 11 11 11 9 9 7 6 5 4 4 4 3 4 4 3 3 4 5 6 7
Wind_Direction
196 175 174 167 163 158 154 151 147 144 142 142 142 142 142 141 139 137 135 133 130 127 124 123 120 118 115 110 105 101 99 96 92 90 89 88 88 87 84 81 78 76 78
184 173 173 169 165 161 158 154 151 147 145 145 144 144 143 143 141 140 138 136 133 129 127 124 122 119 115 111 106 102 99 98 96 92 88 88 90 89 87 85 83 83 81
161 166 170 169 166 163 160 157 153 151 149 148 147 147 146 145 144 143 141 140 136 132 129 127 124 120 116 113 110 107 105 103 100 95 90 89 93 93 90 87 85 84 82
153 162 168 167 167 165 162 160 158 156 154 152 151 150 149 148 147 146 144 142 138 134 132 129 126 123 120 117 114 111 110 108 102 97 90 89 95 96 93 90 87 85 83
129 155 165 167 168 167 164 163 162 161 159 157 155 154 152 151 150 149 147 144 139 136 134 132 130 126 124 121 119 117 114 111 105 98 92 91 95 97 94 92 89 88 86
135 156 168 169 170 172 169 165 165 165 164 162 159 157 156 155 153 152 148 143 140 138 137 135 133 130 128 125 124 122 119 114 107 100 95 95 99 101 99 96 94 92 90
179 163 177 174 176 175 174 170 167 167 168 167 164 162 160 159 156 153 147 143 143 142 141 138 136 134 133 130 127 127 123 118 112 105 102 103 107 107 104 102 99 96 92
215 181 186 183 178 178 177 175 172 171 170 168 169 167 165 162 158 153 150 148 148 148 146 143 140 137 136 134 130 130 129 124 118 111 109 112 114 110 109 107 103 99 97
240 172 191 188 182 180 178 177 176 174 172 170 170 169 166 164 159 156 154 153 154 153 151 148 145 141 139 138 135 134 134 131 125 122 120 121 122 117 114 111 108 104 100
268 208 193 196 181 178 178 179 179 176 174 173 172 167 163 163 162 159 158 158 158 157 154 151 148 145 142 142 141 139 136 134 130 129 131 134 130 126 123 119 115 111 107
275 253 203 196 185 178 176 177 178 177 173 172 170 165 161 162 161 161 161 161 161 160 157 154 151 147 143 143 143 141 139 140 138 139 146 147 141 136 133 131 127 122 115
263 246 216 201 193 181 180 175 173 175 173 169 167 164 160 159 161 163 164 164 164 162 159 156 152 146 142 141 141 141 143 148 146 153 163 159 153 147 143 141 138 131 125
259 248 224 204 201 183 178 173 172 169 168 167 165 163 159 156 158 160 163 164 163 162 158 155 147 146 147 148 148 148 151 156 161 167 175 172 167 161 156 153 149 144 139
259 256 240 212 205 190 183 178 173 172 168 168 168 165 161 160 160 162 166 166 166 166 160 156 152 152 152 156 157 156 161 166 174 180 188 184 179 175 170 167 165 165 165
253 245 248 227 216 196 184 186 177 180 178 174 173 173 170 167 169 167 169 171 172 170 166 162 158 157 157 160 165 166 170 177 183 188 194 190 185 183 183 182 183 184 190
253 243 234 230 223 195 184 187 180 180 181 178 179 180 177 173 172 173 174 176 179 178 176 172 167 163 163 164 171 176 181 186 191 194 195 191 190 191 193 198 200 202 202
252 243 232 223 225 200 188 191 184 177 180 182 181 181 180 177 176 177 179 182 184 182 176 169 163 158 160 169 181 182 184 190 192 196 196 195 197 201 205 210 212 210 211
252 242 231 225 224 210 193 193 187 185 184 184 183 183 185 183 181 179 183 186 183 179 176 173 171 169 173 176 183 189 184 189 195 200 200 201 202 205 210 214 214 213 212
236 235 236 231 228 223 200 192 187 187 192 191 187 187 188 186 184 183 185 185 181 179 179 182 177 170 173 179 184 188 191 196 197 199 201 205 207 208 210 212 212 212 213
230 227 225 231 235 228 205 187 184 188 196 196 189 191 190 187 185 184 183 182 181 182 183 183 179 172 173 168 164 169 198 209 196 201 205 205 208 209 208 205 204 212 218
242 233 226 237 237 224 204 187 190 198 195 198 198 193 193 191 188 185 183 182 184 189 188 182 179 173 174 151 131 135 340 221 214 218 204 199 204 206 203 202 202 205 210
253 245 242 245 244 232 213 194 190 187 190 198 198 190 195 193 191 191 187 187 188 189 187 186 176 176 179 171 153 147 182 241 238 221 209 209 208 196 197 202 201 200 201
291 262 245 248 251 239 217 193 180 172 167 193 200 197 196 194 193 192 192 190 190 190 195 193 188 183 187 194 182 167 174 207 212 224 220 217 207 205 203 194 200 203 203
312 297 265 260 260 248 219 200 193 195 197 211 201 200 199 197 197 196 195 196 194 195 196 197 196 195 184 191 200 205 193 164 174 200 226 220 215 217 214 202 199 204 204
340 337 316 291 275 250 217 208 200 200 204 205 196 200 201 200 200 200 199 200 199 200 200 197 195 199 197 195 192 185 187 189 182 186 219 213 217 222 219 211 199 200 202
1 356 340 324 300 274 226 216 209 203 201 195 193 202 202 200 200 203 203 204 205 204 203 201 199 200 205 202 199 192 189 189 195 194 212 222 225 223 218 213 204 199 198
Height
1492 1493 1495 1498 1501 1503 1506 1509 1511 1514 1516 1518 1520 1522 1524 1526 1528 1530 1531 1533 1535 1536 1538 1539 1541 1542 1543 1544 1546 1546 1547 1548 1549 1549 1550 1550 1550 1551 1551 1551 1551 1551 1551
1491 1492 1495 1498 1500 1503 1506 1509 1511 1514 1516 1519 1521 1523 1525 1526 1528 1530 1532 1534 1536 1537 1539 1540 1542 1543 1545 1546 1547 1548 1549 1550 1551 1551 1552 1552 1552 1552 1553 1553 1553 1553 1553
1490 1492 1494 1497 1500 1503 1506 1509 1511 1514 1516 1519 1521 1523 1525 1527 1529 1531 1533 1535 1537 1538 1540 1541 1543 1544 1546 1547 1548 1550 1551 1552 1552 1553 1553 1554 1554 1554 1554 1554 1554 1554 1554
1491 1493 1494 1497 1500 1503 1505 1508 1511 1514 1516 1518 1520 1523 1525 1527 1529 1531 1533 1535 1537 1539 1541 1542 1544 1545 1547 1548 1550 1551 1552 1553 1554 1554 1555 1555 1555 1556 1556 1556 1556 1556 1556
1491 1493 1495 1497 1500 1502 1505 1508 1510 1513 1516 1518 1520 1523 1525 1527 1529 1531 1534 1536 1538 1539 1541 1543 1545 1546 1548 1549 1551 1552 1553 1554 1555 1556 1556 1557 1557 1557 1557 1557 1557 1557 1557
1491 1492 1495 1497 1499 1502 1504 1507 1510 1512 1515 1518 1520 1522 1525 1527 1529 1531 1534 1536 1538 1540 1542 1543 1545 1547 1549 1551 1552 1553 1555 1556 1556 1557 1558 1558 1558 1558 1559 1559 1559 1559 1559
1490 1492 1494 1496 1498 1501 1504 1506 1509 1511 1514 1517 1519 1522 1524 1527 1529 1531 1534 1536 1538 1540 1542 1544 1546 1548 1550 1551 1553 1554 1555 1556 1557 1558 1559 1559 1559 1560 1560 1560 1560 1560 1560
1490 1491 1493 1495 1497 1500 1502 1505 1508 1510 1513 1516 1518 1521 1524 1527 1529 1531 1534 1536 1538 1540 1542 1544 1546 1549 1550 1552 1554 1555 1556 1557 1558 1559 1560 1560 1560 1561 1561 1561 1561 1561 1561
1489 1490 1491 1493 1495 1498 1500 1503 1506 1509 1511 1514 1517 1520 1523 1526 1528 1531 1533 1536 1538 1540 1543 1545 1547 1549 1551 1553 1554 1556 1557 1558 1559 1560 1560 1561 1561 1562 1562 1562 1562 1562 1562
1486 1488 1489 1491 1493 1495 1498 1501 1504 1507 1510 1513 1516 1519 1522 1525 1528 1530 1533 1535 1538 1540 1543 1545 1547 1549 1551 1553 1554 1556 1557 1558 1559 1560 1561 1561 1562 1562 1563 1563 1563 1563 1563
1484 1485 1487 1489 1491 1493 1496 1498 1502 1505 1508 1511 1514 1517 1520 1523 1526 1529 1532 1535 1537 1540 1542 1544 1547 1549 1551 1553 1554 1556 1557 1559 1560 1561 1561 1562 1563 1563 1563 1563 1564 1564 1564
1480 1482 1484 1486 1488 1490 1493 1495 1498 1502 1505 1508 1511 1515 1518 1521 1525 1528 1531 1534 1536 1539 1542 1544 1546 1548 1550 1552 1554 1556 1557 1559 1560 1561 1562 1562 1563 1563 1563 1564 1564 1564 1564
1477 1479 1480 1482 1484 1487 1490 1492 1495 1499 1502 1506 1509 1512 1515 1519 1523 1526 1529 1532 1535 1537 1540 1543 1545 1547 1550 1552 1553 1555 1557 1558 1559 1560 1561 1562 1563 1563 1563 1564 1564 1564 1564
1474 1475 1477 1479 1481 1484 1486 1489 1492 1495 1499 1502 1506 1509 1512 1516 1519 1523 1526 1529 1532 1535 1538 1541 1544 1546 1549 1551 1553 1555 1556 1557 1559 1560 1561 1562 1562 1563 1563 1563 1564 1564 1564
1470 1471 1472 1475 1478 1480 1483 1486 1489 1492 1495 1498 1502 1506 1509 1513 1516 1520 1524 1527 1530 1533 1536 1539 1542 1545 1547 1549 1552 1553 1555 1557 1558 1559 1560 1561 1561 1562 1562 1563 1563 1563 1563
1466 1468 1469 1471 1474 1476 1479 1482 1485 1488 1491 1495 1498 1502 1506 1510 1513 1517 1520 1524 1527 1531 1534 1537 1540 1542 1545 1548 1550 1552 1554 1555 1556 1558 1559 1560 1560 1561 1561 1562 1562 1562 1562
1462 1464 1465 1467 1469 1472 1475 1478 1482 1485 1488 1490 1494 1498 1502 1506 1510 1513 1517 1521 1524 1528 1531 1534 1537 1540 1543 1545 1548 1550 1552 1553 1554 1556 1557 1558 1558 1559 1560 1560 1560 1560 1560
1459 1460 1462 1463 1465 1467 1470 1474 1478 1481 1483 1486 1490 1494 1498 1502 1506 1510 1513 1517 1521 1525 1528 1531 1534 1537 1539 1542 1545 1547 1549 1551 1552 1553 1554 1555 1556 1557 1557 1558 1558 1558 1558
1455 1456 1458 1459 1462 1464 1467 1470 1473 1476 1480 1483 1486 1490 1494 1497 1502 1505 1509 1513 1517 1521 1524 1527 1530 1533 1536 1539 1542 1544 1546 1547 1549 1550 1552 1552 1553 1554 1555 1555 1556 1556 1556
1451 1452 1454 1457 1459 1460 1463 1466 1469 1472 1475 1479 1482 1485 1489 1493 1497 1501 1505 1509 1513 1516 1520 1523 1526 1530 1533 1536 1538 1540 1542 1544 1546 1547 1548 1549 1550 1551 1552 1552 1553 1553 1553
1447 1449 1451 1453 1454 1456 1458 1460 1464 1467 1470 1474 1477 1481 1485 1488 1492 1496 1500 1504 1508 1511 1515 1519 1522 1525 1528 1532 1534 1536 1538 1540 1542 1543 1544 1545 1546 1547 1548 1549 1549 1550 1550
1445 1446 1448 1449 1450 1452 1452 1456 1460 1463 1466 1469 1473 1476 1480 1484 1487 1491 1495 1499 1502 1507 1510 1514 1517 1520 1523 1526 1529 1532 1534 1536 1536 1538 1539 1541 1542 1543 1544 1545 1545 1546 1546
1442 1443 1444 1445 1446 1447 1449 1452 1455 1458 1461 1464 1467 1470 1475 1478 1482 1486 1490 1493 1497 1501 1504 1508 1511 1514 1517 1521 1524 1527 1529 1529 1531 1532 1534 1536 1537 1539 1540 1540 1541 1542 1542
1439 1439 1440 1441 1442 1443 1445 1447 1450 1452 1455 1458 1462 1465 1469 1473 1477 1480 1484 1488 1491 1495 1499 1502 1506 1509 1512 1515 1519 1521 1524 1524 1526 1526 1528 1530 1532 1533 1534 1535 1536 1537 1538
1437 1437 1437 1439 1439 1440 1441 1444 1446 1448 1451 1454 1458 1461 1464 1467 1471 1475 1479 1482 1485 1489 1493 1496 1499 1503 1506 1508 1511 1514 1517 1519 1520 1521 1522 1524 1526 1528 1529 1530 1531 1532 1533
1436 1436 1436 1436 1436 1437 1438 1440 1442 1444 1447 1449 1452 1456 1458 1462 1465 1469 1473 1476 1480 1483 1486 1490 1493 1496 1499 1502 1505 1508 1510 1512 1514 1516 1517 1518 1519 1521 1523 1524 1525 1526 1527